TimeEDT,TemperatureF,Dew PointF,Humidity,Sea Level PressureIn,VisibilityMPH,Wind Direction,Wind SpeedMPH,Gust SpeedMPH,PrecipitationIn,Events,Conditions,WindDirDegrees,DateUTC
12:00 AM,59.0,57.2,94,29.98,15.0,SW,2.3,-,N/A,,Partly Cloudy,220,2013-10-01 04:00:00
1:00 AM,57.2,57.2,100,29.98,4.0,NNW,3.5,-,N/A,,Scattered Clouds,330,2013-10-01 05:00:00
1:09 AM,-9999,-9999,N/A,-9999,0.2,NW,2.3,-,N/A,Fog,Fog,320,2013-10-01 05:09:00
2:00 AM,56,56,100,29.99,0,Calm,Calm,,,Fog,Heavy Fog,,2013-10-01 06:00:00
2:00 AM,57.2,57.2,100,29.99,0.2,Calm,Calm,-,N/A,Fog,Fog,0,2013-10-01 06:00:00
2:34 AM,-9999,-9999,N/A,-9999,5.0,Calm,Calm,-,N/A,,Mostly Cloudy,0,2013-10-01 06:34:00
3:00 AM,53.6,53.6,100,29.99,5.0,Calm,Calm,-,N/A,,Scattered Clouds,0,2013-10-01 07:00:00
4:00 AM,51.8,51.8,100,29.99,7.0,Calm,Calm,-,N/A,,Partly Cloudy,0,2013-10-01 08:00:00
5:00 AM,51.8,51.8,100,29.99,7.0,Calm,Calm,-,N/A,,Partly Cloudy,0,2013-10-01 09:00:00
6:00 AM,50.0,50.0,100,30.00,12.0,Calm,Calm,-,N/A,,Clear,0,2013-10-01 10:00:00
7:00 AM,50.0,50.0,100,30.01,12.0,Calm,Calm,-,N/A,,Partly Cloudy,0,2013-10-01 11:00:00
8:00 AM,52,52,100,30.02,12,West,2.3,,,,,260,2013-10-01 12:00:00
8:00 AM,51.8,51.8,100,30.02,12.0,West,2.3,-,N/A,,Clear,270,2013-10-01 12:00:00
9:00 AM,57.2,55.4,94,30.03,10.0,SW,3.5,-,N/A,,Clear,220,2013-10-01 13:00:00
10:00 AM,60.8,57.2,88,30.02,10.0,SW,4.6,-,N/A,,Partly Cloudy,220,2013-10-01 14:00:00
11:00 AM,62.6,57.2,82,30.02,10.0,SW,5.8,-,N/A,,Partly Cloudy,230,2013-10-01 15:00:00
12:00 PM,66.2,59.0,78,30.00,10.0,SW,6.9,-,N/A,,Partly Cloudy,230,2013-10-01 16:00:00
1:00 PM,68.0,59.0,73,29.98,12.0,South,10.4,-,N/A,,Partly Cloudy,190,2013-10-01 17:00:00
2:00 PM,70,59,61,29.96,12,South,8.1,,,,Scattered Clouds,190,2013-10-01 18:00:00
2:00 PM,69.8,59.0,68,29.96,12.0,South,6.9,-,N/A,,Partly Cloudy,180,2013-10-01 18:00:00
3:00 PM,71.6,59.0,64,29.94,12.0,South,9.2,-,N/A,,Partly Cloudy,180,2013-10-01 19:00:00
4:00 PM,73.4,59.0,61,29.92,12.0,South,11.5,-,N/A,,Partly Cloudy,180,2013-10-01 20:00:00
5:00 PM,73.4,59.0,61,29.91,12.0,South,9.2,-,N/A,,Partly Cloudy,170,2013-10-01 21:00:00
6:00 PM,69.8,60.8,73,29.90,12.0,South,8.1,-,N/A,,Scattered Clouds,180,2013-10-01 22:00:00
7:00 PM,69.8,59.0,68,29.90,12.0,SSW,5.8,-,N/A,,Partly Cloudy,210,2013-10-01 23:00:00
8:00 PM,69,59,62,29.90,15,SSW,8.1,,,,Scattered Clouds,210,2013-10-02 00:00:00
8:00 PM,69.8,59.0,68,29.90,15.0,SSW,8.1,-,N/A,,Partly Cloudy,210,2013-10-02 00:00:00
9:00 PM,68.0,59.0,73,29.90,15.0,SW,6.9,-,N/A,,Clear,220,2013-10-02 01:00:00
10:00 PM,66.2,59.0,78,29.89,15.0,SW,8.1,-,N/A,,Partly Cloudy,220,2013-10-02 02:00:00
11:00 PM,66.2,59.0,78,29.90,15.0,WSW,6.9,-,N/A,,Partly Cloudy,240,2013-10-02 03:00:00